Espace membre
Imprimable
Lapugnoy, 15/02/2015, FRA - Trail des Givrés
Liste des rapports > 17km - Classement
Recherche: Page: [1]
46 Entrées
 
Les réclamations ne sont plus acceptées, les résultats sont considérés comme définitifs.
RangNrNomAgeIOCEquipeRéelTempsTkmMoy.ScrLocalité
1.7292FMARTEL SANDRINE46FRAJOG GAZELEC1:23:161:23:194:55 12.2461BEUGIN
2.7337FPRUVOST NATHALIE46FRABLARINGHEM TRAIL1:25:201:25:225:02 11.9584RACQUINGHEM
3.7388FMERIOT CHRISTIANE45FRAAC WAMBRECHIES1:28:331:28:475:14 11.49114WAMBRECHIES
4.7408FVANHEDE VIRGINIE40FRABLARINGHEM TRAIL1:29:341:29:365:17 11.38120ROQUETOIRE
5.7386FDECORTE DELMARRE KARINE45FRAUSALIÉVIN/JOGABLAIN1:30:591:31:185:23 11.17139ABLAIN SAINT NAZAIRE
6.7100FVERDIERE ISABELLE48FRAAUBIGNY RUNNING1:31:471:31:585:25 11.09146CAPELLE FERMONT
7.7424FDENIS LAURENCE46FRAJOG'ABLAIN1:35:081:35:275:37 10.69195ABLAIN ST NAZAIRE
8.7106FBÉLOTTI STÉPHANIE40FRAASLA1:38:091:38:205:48 10.37225WAVRECHAIN SOUS FAULX
9.7316FHANNOTEL NATHALIE44FRAASUD1:38:101:38:355:48 10.35232ENGUINEGATTE
10.7237FCOTTREZ NATHALIE40FRA1:39:321:39:445:52 10.23245SAINT VENANT
11.7472FMERLIN SIDONIE42FRA1:39:161:39:595:53 10.20251HALLUIN
12.7192FBONARD RINGO KARINE44FRACREDIT DU NORD ENSEMBLE C1:41:221:41:486:00 10.02280ARRAS
13.7368FLOUCHART SYLVIE41FRALES COUREURS DU LOUP BLAN1:41:331:41:576:00 10.01284ANNEQUIN
14.7325FCHALABI SANDRA LOUISA42FRA1:41:431:42:046:01 9.99285ARRAS
15.7086FBUCHER CLAUDIE42FRA1:42:291:42:306:02 9.95287BREMES
16.7313FLAUWERS VIRGINIE44FRA1:42:461:43:136:05 9.88296ESTAIRES
17.7092FGAGNE SANDRINE41FRA1:43:181:43:196:05 9.87297BREMES
18.7439FMARQUIS CHRISTELLE46FRA1:40:151:44:136:08 9.79310BETHUNE
19.7320FBORDACHAR ANNICK46FRA1:44:421:44:566:11 9.72319LAMBERSART
20.7145FBROUSSIN CÉCILE45FRALES FOULÉES SAINGHINOISES1:44:581:45:226:12 9.68323SAINGHIN EN WEPPES
21.7135FLEMAN ISABELLE42FRAARTOIS ATHLÉTISME1:45:181:45:336:13 9.66326BÉTHUNE
22.7065FROUSSEL ANNICK49FRARCBLENDECQUES1:45:411:46:106:15 9.61329BLENDECQUES
23.7422FGRIMBELLE CÉCILE40FRA1:46:401:46:406:17 9.56331GIVENCHY LES LA BASSEE
24.7289FMEUNIER NATHALIE49FRAARTOIS ATHLETISME1:45:531:47:216:19 9.50337BETHUNE
25.7231FBLARY SARAH42FRA1:47:411:47:546:21 9.45343SAINT VENANT
26.7375FHOQUET HELENE42FRA1:49:261:49:576:29 9.28357RAILLENCOURT STE OLLE
27.7390FPALOMBA STEPHANIE42FRALES COP1 D'ABORD1:50:021:50:196:30 9.25362WARHEM
28.7107FBETHOUART VALERIE47FRACAMPAGNE LES HESDIN1:50:131:50:216:30 9.24364CAMPIGNEULLES LES GRANDES
29.7307FDASSONVILLE SANDRINE41FRA1:50:241:50:486:32 9.21367TOURCOING
30.7297FGADENNE STEPHANIE43FRALES Z AMIS COUREURS DE LA1:51:041:51:166:33 9.17370MARCQ EN BAROEUL
31.7028FKAKOLEWSKI SEVERINE45FRAARTOIS ATHLETISME1:53:101:53:386:42 8.98380LAPUGNOY
32.7114FDELANNOYE STEPHANIE41FRACOPAIN D'ABORD1:54:101:54:276:44 8.91383HOYMILLE
33.7056FLEGAY VALERIE45FRA1:56:191:56:276:51 8.76389HINGES
34.7162FPETIT LAURENCE48FRAARTOIS ATHLÉTISME1:58:121:58:376:59 8.60396HOUDAIN
35.7011FLECLERCQ ELISABETH42FRA1:59:492:00:097:05 8.49400AIRE SUR LA LYS
36.7401FDELATTRE PATRICIA45FRA2:00:292:00:587:07 8.43401CHERISY
37.7280FDELPORTE CECILE43FRA2:03:592:04:037:18 8.22404LEERS
38.7081FCOUSIN SEVERINE44FRA2:04:022:04:077:19 8.22407HALLUIN
39.7259FDEMEULEMESTER BEATRICE47FRAOA HAZEBROUCK2:05:052:05:147:22 8.14408HAZEBROUCK
40.7252FMICHEL THERESE-MARIE42FRAOLYMPIQUE ATHLETISME HAZE2:06:442:06:547:28 8.04410HAZEBROUCK
41.7278FHERMAN NATHALIE43FRA2:06:562:07:147:30 8.02412NOEUX
42.7007FLELEU SYLVIE44FRA2:08:362:08:547:35 7.91415HAILLICOURT
43.7319FVANDEWYNCKEL CAROLINE41FRA2:13:452:13:537:53 7.62424BEUVRY
44.7331FDELIENNE MARIE-CHRISTINE49FRA2:18:552:19:068:11 7.33432CARENCY
DSQ7335FDELANGHE CATHY45FRA1:28:211:28:40SOUCHEZ
DNF7068FVIEQUE KARINE41FRALES TYRANNOSAURESWARDRECQUES
DNF: abandon; DSQ: disqualifié; Vitesse en km/h
Page: [1]